Location: Mainz-Finthen
(49.9906°N, 8.1713°E)
Time: 07:09:37
(UTC+00:00)

N. Korean satellite - Pass Details

Date: 05 December 2022
Orbit: 407 x 442 km, 97.3° (Epoch: 04 February)

Event Time Altitude Azimuth Distance (km) Brightness Sun altitude
Rises 04:24:22 0° 19° (NNE) 2,520 10.4 -25.4°
Reaches altitude 10° 04:26:33 10° 28° (NNE) 1,633 9.5 -25.0°
Maximum altitude 04:29:50 37° 97° (E) 742 8.0 -24.5°
Drops below altitude 10° 04:33:03 10° 167° (SSE) 1,597 9.4 -24.0°
Sets 04:35:09 0° 176° (S) 2,455 10.3 -23.7°
